Location: Unspecified
(17.6330°N, 0.0000°E)
Time: 22:14:25
(UTC+00:00)

Courier 1B Rocket - Pass Details

Date: 02 July 2019
Orbit: 920 x 1202 km, 28.2° (Epoch: 12 October)

Event Time Altitude Azimuth Distance (km) Brightness Sun altitude
Rises 04:53:41 0° 295° (WNW) 3,961 7.8 -8.4°
Reaches altitude 10° 04:56:35 10° 298° (WNW) 2,961 7.2 -7.8°
Maximum altitude 05:03:47 66° 20° (NNE) 1,130 5.6 -6.3°
Drops below altitude 10° 05:10:27 10° 102° (ESE) 2,750 8.3 -4.8°
Sets 05:13:03 0° 105° (ESE) 3,661 8.9 -4.3°
